Location: Newark
(45.4422°N, 16.2769°E)
Time: 06:42:30
(UTC+00:00)

Courier 1B - Pass Details

Date: 12 December 2019
Orbit: 962 x 1209 km, 28.3° (Epoch: 20 January)

Event Time Altitude Azimuth Distance (km) Brightness Sun altitude
Rises 20:04:26 0° 229° (SW) 3,887 10.9 -50.0°
Enters shadow 20:05:03 - 227° (SW) 3,716 10.8 -50.1°
Reaches altitude 10° 20:08:01 10° 213° (SSW) 2,978 - -50.6°
Maximum altitude 20:12:55 19° 171° (S) 2,422 - -51.4°
Drops below altitude 10° 20:17:57 10° 129° (SE) 3,088 - -52.2°
Sets 20:21:45 0° 113° (ESE) 4,080 - -52.8°
